Theta_e
314 314 314 314 314 314 314 313 312 311 311 312 311 311 310 311 311 311 311 312 312 312 311 312 311 311 301 288 289 302 310 308 301 298 294 291 287 286 282 285 285 283 284 286 287 287 287
313 313 313 314 313 313 312 312 311 311 311 311 311 310 310 310 311 311 311 312 312 311 311 311 309 309 295 281 298 302 300 299 298 296 293 292 289 290 286 285 284 285 285 285 287 287 287
313 313 312 313 313 312 311 311 311 311 311 311 310 310 310 310 310 310 311 312 310 312 310 309 309 304 293 286 300 301 299 295 296 295 292 293 293 289 287 284 288 287 282 284 285 285 284
313 313 312 312 312 311 311 311 311 311 311 311 310 310 310 310 310 310 312 310 308 311 309 310 310 298 285 299 299 300 297 295 296 296 295 295 294 290 287 288 286 282 281 276 281 284 285
313 313 312 311 312 311 311 311 310 311 311 310 309 309 310 310 310 311 309 307 305 306 304 310 298 292 284 300 291 294 295 292 293 294 294 296 292 286 286 281 277 280 274 276 279 285 285
314 313 312 311 311 311 310 311 311 311 310 309 309 310 309 309 310 309 307 304 301 299 297 301 296 284 288 286 291 294 295 294 291 290 288 287 285 281 281 278 269 274 275 277 277 281 284
315 313 312 312 311 311 310 310 310 311 310 309 309 309 309 309 310 306 298 290 286 285 288 284 284 285 287 292 294 291 293 291 288 284 279 281 278 275 278 280 281 280 278 276 279 283 282
316 314 313 312 311 311 310 310 310 310 309 308 308 309 308 309 306 304 295 289 287 288 282 288 289 289 291 292 286 287 293 284 283 279 280 279 276 280 282 282 280 280 277 276 280 282 281
316 315 313 312 312 311 311 310 310 309 308 308 308 308 308 308 306 297 292 290 296 295 282 285 289 288 289 287 283 284 288 285 280 279 279 276 279 283 281 278 277 278 276 276 276 280 281
317 316 314 312 312 312 311 310 310 309 308 308 308 308 308 306 295 292 289 294 296 293 273 280 282 285 287 286 281 289 289 284 282 278 279 278 281 280 279 278 280 274 281 280 278 277 271
317 316 315 313 312 312 311 310 310 309 308 308 308 308 307 303 292 289 292 294 294 287 265 281 281 289 287 283 283 283 288 285 279 280 277 276 278 278 275 278 281 277 282 280 279 276 275
316 316 315 314 312 312 311 310 310 309 308 308 307 307 306 296 291 291 293 292 287 273 266 277 281 280 280 282 281 283 282 286 284 280 281 279 283 281 280 281 281 282 278 279 279 276 267
317 316 315 314 313 312 311 310 310 309 308 308 307 306 301 296 290 292 291 285 275 268 277 275 276 279 278 278 279 279 278 277 274 267 271 275 277 281 283 276 282 279 274 266 263 264 266
317 316 315 314 313 312 312 311 310 309 307 307 306 302 299 296 292 291 285 279 267 264 266 278 279 278 274 277 278 277 276 273 278 276 270 266 266 276 280 277 276 277 275 269 261 266 269
316 316 315 314 313 313 312 311 311 309 306 306 301 292 292 294 292 288 282 270 268 268 276 277 277 269 269 275 275 275 273 273 276 278 271 268 267 281 281 281 279 273 270 275 269 272 268
316 315 315 314 313 312 312 312 311 309 306 303 290 288 289 291 289 284 277 273 267 278 280 277 268 271 263 269 272 272 272 276 277 280 281 275 268 278 280 281 281 276 276 266 270 263 262
316 315 314 314 313 312 312 312 311 308 305 301 288 282 288 289 286 281 272 264 271 279 280 275 268 270 269 269 272 271 274 277 279 279 280 278 272 273 277 271 272 272 269 270 271 270 265
315 315 314 313 313 312 312 312 311 308 303 294 284 278 289 286 278 263 268 266 281 279 281 280 278 276 268 269 267 272 274 277 281 281 275 279 273 267 268 275 279 276 270 270 264 267 267
315 314 313 313 312 312 312 312 311 307 301 288 278 280 288 285 273 268 269 275 279 279 279 279 278 278 272 268 267 271 276 281 282 280 277 278 272 265 269 274 277 273 272 271 273 270 264
315 314 313 313 313 312 311 311 311 307 301 287 281 278 280 279 277 275 271 270 271 280 279 281 280 279 270 266 273 267 275 280 281 281 284 279 273 272 267 268 272 270 271 271 268 260 263
315 314 314 313 313 312 311 311 310 306 301 288 280 274 272 273 273 278 276 275 274 272 279 280 277 272 271 266 264 264 274 277 280 282 278 278 267 269 268 269 274 272 270 269 265 265 263
315 314 314 313 312 312 312 311 310 306 301 287 279 278 274 269 276 278 279 274 277 277 277 274 270 270 271 268 271 267 275 276 275 278 276 276 267 267 267 270 274 273 272 271 268 266 266
315 314 314 313 312 311 311 311 309 306 298 285 283 283 282 277 277 274 276 277 277 278 279 279 278 275 269 273 277 277 278 279 279 276 276 273 274 269 266 269 270 268 271 270 269 268 266
315 314 314 313 312 311 311 311 309 306 298 288 285 283 280 273 274 277 279 279 277 278 276 278 279 273 279 281 279 277 278 279 278 278 278 275 274 268 263 266 265 275 276 274 272 270 268
315 314 313 313 312 311 311 310 308 306 299 292 288 284 280 272 276 279 279 278 277 276 277 278 279 280 280 277 268 266 269 269 268 274 275 275 272 263 264 262 275 274 273 271 269 270 270
314 314 313 312 311 311 310 310 308 306 300 293 291 288 284 278 276 281 277 277 272 270 272 276 280 281 279 275 265 261 264 261 267 270 278 278 274 268 260 261 265 270 273 276 274 271 271
314 313 313 312 311 311 310 310 308 306 302 294 290 288 284 278 278 277 273 274 276 271 270 273 278 276 278 265 262 263 264 263 267 262 267 265 266 263 260 261 269 269 273 276 269 271 267
313 313 312 311 311 310 310 309 308 305 301 295 288 289 286 278 279 280 280 276 277 274 269 274 274 274 269 265 263 262 265 266 266 267 270 270 266 261 258 261 265 270 273 271 267 264 263
309 312 312 311 311 310 310 309 307 304 301 297 288 289 288 283 280 282 281 281 281 280 277 277 276 274 273 266 264 264 263 262 266 267 275 269 272 268 268 268 268 266 265 266 264 265 265
Wind_Speed
2 3 5 5 5 5 6 6 7 8 8 10 11 13 14 16 18 19 19 18 17 18 15 11 9 7 4 3 1 3 6 7 7 3 5 3 2 2 3 4 5 9 8 8 8 7 10
1 2 3 3 4 4 5 6 6 7 8 10 11 13 15 17 19 20 21 19 20 20 9 5 4 2 3 2 1 2 6 7 5 3 5 5 6 5 6 6 6 4 5 8 9 14 13
1 1 1 2 2 3 4 5 6 7 9 11 12 14 15 17 20 21 21 20 22 14 2 2 3 3 3 5 2 6 5 3 3 4 5 5 5 5 3 5 7 6 12 16 16 17 12
2 1 1 1 1 2 3 4 5 7 8 10 13 14 17 19 21 22 21 21 13 4 5 4 5 3 3 4 2 7 3 6 6 6 5 8 6 6 5 5 4 5 5 7 2 3 7
5 4 2 1 1 1 3 4 5 7 9 11 13 15 17 19 21 21 22 19 6 3 2 4 3 3 1 5 3 6 2 5 6 4 5 3 3 4 2 3 4 5 9 12 15 7 8
6 6 3 3 3 1 3 4 5 6 8 11 13 16 18 20 20 18 23 4 6 3 5 1 2 2 3 6 5 7 5 4 4 6 6 3 2 2 1 2 6 10 15 15 18 5 9
9 7 5 4 4 3 4 4 5 6 8 11 13 16 18 20 18 15 11 4 9 6 9 1 1 3 6 8 5 5 6 6 2 2 3 2 2 6 10 8 14 15 17 24 23 17 17
11 8 6 5 5 4 4 5 5 6 8 11 14 16 19 18 10 9 6 7 2 3 8 1 3 5 6 1 5 5 8 7 5 5 4 4 6 7 6 8 14 13 19 22 21 12 11
11 9 8 6 6 6 5 5 5 5 7 10 14 17 19 19 6 7 7 3 5 3 2 6 4 3 7 2 3 8 8 5 3 5 7 4 8 10 10 11 11 14 13 19 20 17 10
12 11 9 7 7 6 6 5 5 6 7 9 13 15 18 19 6 1 3 5 4 3 5 6 5 3 7 3 3 3 5 3 5 5 7 6 4 12 13 5 7 11 4 10 13 12 6
13 12 9 8 7 6 6 6 6 5 6 8 11 13 15 10 1 3 5 5 3 3 7 10 7 3 8 7 7 4 7 6 4 7 3 7 11 13 4 10 14 10 14 17 19 15 13
14 13 11 9 8 7 7 7 6 5 6 7 11 12 11 4 3 1 4 2 4 9 6 8 5 9 10 5 5 7 8 7 2 5 4 13 4 1 3 17 13 15 12 20 9 6 4
16 15 12 11 9 8 7 7 6 5 6 8 11 13 3 2 2 4 1 4 8 10 6 12 6 8 8 7 6 7 6 9 7 9 16 9 5 4 3 11 8 17 15 5 6 2 5
16 14 15 12 11 9 8 7 6 4 5 8 12 6 4 2 3 0 2 7 11 4 6 4 7 11 4 9 4 11 7 7 7 4 6 6 10 8 8 2 10 15 8 5 6 4 7
17 14 14 14 12 9 9 7 5 4 4 7 7 3 2 2 3 1 6 8 8 7 3 7 10 5 7 5 3 9 6 4 4 6 7 6 7 3 8 5 9 10 8 16 6 10 5
18 16 15 14 13 10 8 6 5 3 3 6 2 3 2 6 1 3 8 2 2 3 2 5 1 2 3 7 9 10 6 3 8 8 7 3 8 4 6 6 4 10 12 6 3 4 5
19 18 15 14 13 11 9 7 6 4 1 4 4 5 3 5 2 7 5 6 4 4 2 3 3 4 4 4 3 4 5 6 6 8 7 3 2 9 5 7 14 11 9 5 6 4 4
21 19 17 16 14 12 10 9 7 5 4 7 3 3 3 2 7 1 2 6 4 2 2 1 3 3 4 3 3 3 4 3 7 9 9 3 4 5 5 4 8 9 14 5 3 5 4
21 20 18 16 15 13 12 11 9 7 4 4 2 2 2 4 4 3 5 2 2 0 1 1 3 3 1 2 4 3 4 4 6 7 5 7 4 6 10 2 8 8 22 19 2 4 13
21 20 19 18 17 15 13 12 10 9 7 6 3 3 6 6 1 5 1 2 4 1 3 2 3 3 4 5 2 5 5 4 11 3 13 2 3 2 2 7 4 18 22 21 13 4 6
22 20 19 19 19 17 15 14 13 12 10 5 4 2 3 2 4 3 2 3 2 4 3 2 2 2 3 2 4 3 4 7 4 10 5 4 2 4 6 3 0 13 16 20 18 12 7
22 22 22 21 19 18 17 17 16 14 9 5 5 5 2 2 1 1 2 2 1 3 3 3 4 3 5 5 7 4 3 3 3 9 7 5 4 5 5 4 4 10 22 19 17 15 6
22 23 23 21 20 19 19 19 19 18 6 3 1 1 4 2 2 3 4 4 3 2 4 4 4 3 2 8 6 9 6 6 9 6 7 5 5 6 7 7 5 5 20 11 11 15 6
24 23 24 23 22 21 21 20 20 20 7 4 3 4 5 3 2 4 3 3 3 4 3 3 2 4 2 3 3 3 1 4 5 7 7 6 5 3 4 8 10 5 11 3 6 20 19
24 23 24 24 24 23 21 21 22 21 13 4 3 4 4 1 2 2 3 3 3 3 2 3 2 3 4 2 4 6 5 5 4 5 3 6 1 4 5 2 1 3 9 8 6 11 18
23 24 24 25 25 23 22 23 22 21 16 5 2 2 4 6 5 1 3 1 2 2 5 3 1 3 3 2 5 5 2 4 8 12 2 2 4 5 5 7 5 4 5 6 1 11 15
18 22 24 25 27 27 26 24 24 22 17 6 2 1 4 4 1 3 3 3 3 2 2 3 5 5 3 3 5 3 0 2 3 3 7 6 6 5 3 2 6 3 13 4 6 1 4
16 20 23 25 26 27 26 25 25 23 18 6 3 2 3 4 1 1 2 3 1 2 3 4 3 3 4 5 4 3 3 4 1 3 3 1 3 1 2 5 5 5 3 7 4 2 3
8 18 23 26 27 28 28 28 27 24 19 9 4 1 2 6 3 2 3 2 1 1 3 3 3 0 3 4 1 3 1 1 3 1 1 1 5 4 5 6 4 3 4 3 4 4 2
Wind_Direction
41 31 42 42 46 43 39 39 32 21 16 17 1 352 349 340 337 336 333 330 328 323 315 316 330 348 30 49 220 286 291 312 325 298 255 257 269 250 238 251 291 246 258 256 267 292 276
41 45 44 34 61 43 36 31 20 14 6 10 356 345 348 341 334 334 331 327 328 325 313 311 342 59 67 96 280 294 342 311 246 258 252 203 238 225 254 230 206 233 267 275 283 277 268
205 355 47 53 41 48 17 21 9 5 1 358 350 342 344 340 334 333 327 328 331 331 32 80 106 90 63 170 276 324 304 249 249 225 251 224 207 195 212 274 258 269 281 284 265 260 256
216 219 240 36 3 21 13 5 355 352 358 353 344 340 345 342 336 335 327 331 330 16 91 109 111 78 214 250 268 309 294 297 267 247 229 256 206 212 189 259 296 281 254 283 137 179 242
224 226 239 270 275 346 343 340 345 349 351 347 340 342 346 341 338 335 326 333 343 86 34 129 46 93 19 316 339 315 270 274 309 291 267 257 142 210 218 257 299 195 267 263 293 238 252
226 231 230 250 274 304 305 312 335 345 349 341 340 345 343 342 343 346 330 339 25 29 4 24 81 36 358 304 310 310 279 274 278 313 340 359 50 251 298 127 275 287 286 283 282 282 270
223 228 229 249 261 279 285 308 327 340 346 337 343 344 342 345 348 1 357 9 15 344 38 103 276 257 282 299 307 311 316 315 307 57 321 302 296 251 273 242 257 273 281 284 279 283 278
223 225 228 241 256 261 275 294 316 332 334 339 343 341 345 346 42 21 29 64 144 216 319 304 249 271 260 267 311 301 358 4 359 317 313 331 255 269 286 282 284 282 282 279 282 283 275
223 225 228 237 252 253 261 280 306 320 333 341 342 344 343 347 136 50 72 34 314 163 264 300 228 273 285 53 294 309 10 317 291 318 319 261 273 311 333 314 291 281 270 281 279 307 261
217 221 226 228 242 252 264 276 296 310 331 340 342 345 348 341 48 330 60 313 327 88 61 310 344 353 355 345 296 333 337 321 342 311 316 270 285 322 316 304 350 300 311 291 288 306 295
212 208 215 218 235 242 252 269 279 296 324 334 336 344 353 29 209 51 304 331 339 55 37 316 325 329 340 55 290 306 339 3 329 310 52 272 310 331 312 327 333 267 292 284 278 269 289
215 201 205 213 227 235 245 261 276 296 314 328 332 341 352 28 38 103 316 66 55 40 303 339 353 348 6 339 325 314 3 348 299 323 237 291 295 7 275 317 301 275 294 292 268 241 250
213 195 198 210 219 226 237 253 266 283 307 330 332 339 28 104 318 333 70 59 33 92 354 314 331 351 347 312 310 19 354 18 31 360 349 330 333 313 317 329 317 334 335 315 350 9 228
209 202 191 203 210 221 232 244 261 279 317 333 330 358 358 101 328 310 65 48 57 239 247 339 331 320 358 343 340 341 7 359 47 5 318 7 330 19 319 260 309 321 332 320 309 313 314
207 202 202 193 204 212 225 235 246 257 315 337 349 347 40 347 324 97 70 48 199 205 264 330 322 19 321 346 309 358 13 321 43 359 1 328 281 268 294 310 31 316 337 303 254 257 237
202 200 200 200 193 202 213 220 228 250 323 19 59 10 283 331 319 65 70 223 193 235 6 54 325 92 306 322 353 5 351 324 350 4 345 287 295 316 310 9 22 345 348 348 337 316 324
202 198 199 199 190 191 201 207 209 206 358 89 45 33 272 347 54 46 107 221 261 242 129 121 247 300 274 303 313 315 297 306 24 315 319 295 183 296 13 9 343 5 358 315 289 273 335
200 199 195 192 189 186 189 199 202 184 122 55 88 23 308 45 46 4 115 187 221 311 108 288 221 225 206 313 316 301 304 274 8 324 334 333 272 288 254 269 14 30 1 335 262 29 319
199 197 193 190 184 183 185 188 186 177 144 118 102 250 333 76 89 325 310 284 266 89 254 246 277 173 97 263 347 243 288 267 357 333 335 352 330 330 348 334 10 21 10 4 356 353 14
200 194 191 189 186 182 180 180 173 162 144 86 74 8 332 48 101 123 107 318 321 302 259 233 268 59 27 1 293 291 306 313 341 330 358 21 294 309 293 262 323 9 17 20 22 27 318
196 191 193 192 186 181 178 175 171 160 149 93 34 242 219 312 341 92 94 154 321 4 229 187 300 166 153 333 315 286 286 303 322 1 354 47 325 336 278 235 282 23 19 20 28 7 37
195 191 191 191 187 182 176 173 169 156 143 81 127 141 314 132 228 120 286 241 268 302 220 274 170 192 190 189 187 268 349 347 327 331 343 5 315 7 296 310 278 5 22 23 23 12 7
194 193 190 187 186 180 176 175 166 158 132 115 137 31 107 327 80 80 221 179 215 150 242 239 245 139 187 234 211 226 223 267 278 308 327 344 326 8 309 333 346 359 10 15 32 30 338
195 195 189 187 185 181 177 175 168 166 144 124 173 119 93 274 114 214 192 196 224 215 245 301 226 130 234 303 315 33 154 234 248 274 245 305 330 60 282 357 37 355 20 348 14 32 20
195 192 190 188 185 179 178 175 173 168 152 105 156 127 126 183 188 256 219 224 306 296 237 242 286 212 318 42 51 28 345 25 321 272 302 202 298 56 70 48 206 9 4 350 0 29 18
197 194 191 187 181 178 178 178 173 168 144 101 123 116 113 118 251 159 140 137 240 294 337 262 341 319 22 57 62 87 40 213 327 338 267 47 49 94 29 80 26 242 327 309 162 41 17
203 190 193 185 184 180 178 178 172 166 152 114 109 131 101 112 247 131 160 170 121 98 215 303 339 355 50 33 63 99 235 205 39 5 331 346 7 71 23 75 291 278 312 300 58 229 9
207 197 192 188 185 179 177 177 170 162 149 117 107 17 109 106 69 157 341 125 88 97 134 265 39 338 35 57 104 218 121 215 74 235 151 34 19 317 68 52 341 13 325 100 198 322 140
289 200 197 191 185 182 176 171 167 156 143 115 105 53 68 77 131 90 96 64 15 105 151 351 127 344 157 89 12 93 87 67 145 265 267 346 171 185 167 205 240 281 162 213 170 157 219